Welcome to the New NWS' Forecast!
Most changes are behind the scenes, but click here for differences you might notice.

Regional Weather Roundup (RWR)

Issued by National Weather Service (NWS)

                            
707 
ASUS46 KSEW 160010
RWRWA 

WASHINGTON REGIONAL WEATHER ROUNDUP
NATIONAL WEATHER SERVICE SEATTLE WA
500 PM PDT SUN JUL 15 2018

NOTE:"FAIR" INDICATES FEW OR NO CLOUDS BELOW 12,000 FEET WITH NO 
SIGNIFICANT WEATHER AND/OR OBSTRUCTIONS TO VISIBILITY.

WAZ507-509-555>559-160100-
SEATTLE, TACOMA, EVERETT, AND VICINITY
  
CITY           SKY/WX    TMP DP  RH WIND       PRES   REMARKS
EVERETT        SUNNY     85  53  33 VRB7      29.98F                  
6HR MIN TEMP:  74; 6HR MAX TEMP:  87;                                

BOEING FIELD   SUNNY     89  46  22 W9        29.93F                  
6HR MIN TEMP:  78; 6HR MAX TEMP:  90;                                

RENTON         SUNNY     91  54  28 NW13      29.92F                  
6HR MIN TEMP:  80; 6HR MAX TEMP:  91;                                

SEATAC AIRPORT MOSUNNY   92  52  25 N10       29.96F                  
6HR MIN TEMP:  81; 6HR MAX TEMP:  93;                                

JBLM-MCCHORD   SUNNY     91  56  30 NE10      29.95F                  
6HR MIN TEMP:  80; 6HR MAX TEMP:  91;                                

PUYALLUP       FAIR      91  52  25 VRB5G12   29.96F                  
BREMERTON      SUNNY     91  49  23 NE10      29.96                   
6HR MIN TEMP:  80; 6HR MAX TEMP:  92;                                

JBLM-FT LEWIS  SUNNY     91  57  31 N6        29.94F HX  90           
TACOMA NARROWS SUNNY     86  50  28 NE10      29.95F                  
6HR MIN TEMP:  76; 6HR MAX TEMP:  88;                                

$$
 
WAZ001-503-506-510-514-515-160100-
NORTH INTERIOR
  
CITY           SKY/WX    TMP DP  RH WIND       PRES   REMARKS
BELLINGHAM     SUNNY     84  52  33 VRB5      29.97F                  
6HR MIN TEMP:  76; 6HR MAX TEMP:  85;                                

FRIDAY HARBOR  SUNNY     80  48  32 E3        29.98F                  
6HR MIN TEMP:  77; 6HR MAX TEMP:  89;                                

EASTSOUND      SUNNY     73  52  46 NW5       29.97F                  
PORT ANGELES   SUNNY     84  44  24 VRB6      30.00F                  
6HR MIN TEMP:  78; 6HR MAX TEMP:  85;                                

EDIZ HOOK      FAIR      74  51  44 CALM      29.98F                  
6HR MIN TEMP:  67; 6HR MAX TEMP:  76;                                

PORT TOWNSEND  FAIR      86  48  26 W9        29.97F                  
NAS WHIDBEY    MOSUNNY   77  51  40 W6        30.01F                  
6HR MIN TEMP:  69; 6HR MAX TEMP:  78;                                

ARLINGTON      SUNNY     88  52  29 NW13      29.96F                  
6HR MIN TEMP:  78; 6HR MAX TEMP:  89;                                

BURLINGTON     SUNNY     82  50  32 W13       29.97F                  
$$
 
WAZ020-022-039-040-504-511-512-160100-
SOUTHWEST INTERIOR
  
CITY           SKY/WX    TMP DP  RH WIND       PRES   REMARKS
SHELTON        SUNNY     96  50  20 VRB5      29.91F HX  93           
6HR MIN TEMP:  82; 6HR MAX TEMP:  97;                                

OLYMPIA        SUNNY     93  50  23 N8        29.93F HX  90           
6HR MIN TEMP:  79; 6HR MAX TEMP:  93;                                

CHEHALIS       FAIR      95  54  24 NE8G15    29.92F HX  93           
KELSO          SUNNY     96  61  31 W13       29.89F HX  96           
6HR MIN TEMP:  82; 6HR MAX TEMP:  97;                                

VANCOUVER      MOSUNNY   97  48  18 VRB6      29.87F HX  93           
6HR MIN TEMP:  81; 6HR MAX TEMP:  98;                                

SCAPPOOSE, OR  MOSUNNY   99  52  20 N7        29.86F HX  96           
6HR MIN TEMP:  85; 6HR MAX TEMP:  99;                                

PORTLAND, OR   PTSUNNY   98  46  17 NW6       29.87F HX  94           
6HR MIN TEMP:  81; 6HR MAX TEMP:  99;                                

$$
 
WAZ021-516-517-160100-
WASHINGTON COAST
  
CITY           SKY/WX    TMP DP  RH WIND       PRES   REMARKS
FORKS          SUNNY     80  50  34 NW12G20   29.98F                  
6HR MIN TEMP:  77; 6HR MAX TEMP:  86;                                

HOQUIAM        SUNNY     74  60  61 SW14      29.97F                  
6HR MIN TEMP:  69; 6HR MAX TEMP:  81;                                

ASTORIA, OR    SUNNY     75  57  53 W12       29.97S                  
6HR MIN TEMP:  75; 6HR MAX TEMP:  83;                                

$$
 
WAZ019-023-024-040-567>569-160100-
CASCADE MOUNTAINS AND COLUMBIA GORGE
  
CITY           SKY/WX    TMP DP  RH WIND       PRES   REMARKS
STAMPEDE PASS  NOT AVBL                                               
TROUTDALE, OR  PTSUNNY   99  44  15 VRB5      29.86F HX  95           
6HR MIN TEMP:  81; 6HR MAX TEMP:  99;                                

HOOD RIVER, OR MOCLDY    97  41  14 CALM      29.88F HX  92           
THE DALLES, OR MOSUNNY  103  36  10 NE7       29.84F HX  97           
6HR MIN TEMP:  86; 6HR MAX TEMP: 105;                                

$$

WAZ026-027-041>044-520-521-160100-
EAST SLOPES
  
CITY           SKY/WX    TMP DP  RH WIND       PRES   REMARKS
OMAK           SUNNY     96  36  12 SW7       29.93F HX  91           
6HR MIN TEMP:  82; 6HR MAX TEMP:  96;                                

WENATCHEE      SUNNY     95  39  14 E7        29.92F HX  91           
6HR MIN TEMP:  79; 6HR MAX TEMP:  96;                                

ELLENSBURG     SUNNY     98  39  13 E7        29.96F HX  93           
6HR MIN TEMP:  72; 6HR MAX TEMP:  99;                                

YAKIMA         SUNNY     96  39  13 SE8       29.92F HX  91           
6HR MIN TEMP:  87; 6HR MAX TEMP:  97;                                

SUNNYSIDE ARPT PTCLDY    95  49  20 E6        29.90F HX  92           
6HR MIN TEMP:  82; 6HR MAX TEMP:  96;                                

YAKIMA TC        N/A     97  31  10 SW9       29.91F HX  91           
6HR MIN TEMP:  88; 6HR MAX TEMP:  97;                                

$$

WAZ028-034-035-160100-
COLUMBIA BASIN
  
CITY           SKY/WX    TMP DP  RH WIND       PRES   REMARKS
EPHRATA        SUNNY     96  31  10 S12       29.94F HX  90           
6HR MIN TEMP:  88; 6HR MAX TEMP:  97;                                

MOSES LAKE     SUNNY     96  31  10 SW9       29.94F HX  90           
6HR MIN TEMP:  87; 6HR MAX TEMP:  98;                                

PASCO          MOSUNNY   97  42  15 NW7       29.89F HX  93           
6HR MIN TEMP:  84; 6HR MAX TEMP:  99;                                

RICHLAND ARPT  PTCLDY   100  33   9 E3        29.88F HX  94           
6HR MIN TEMP:  84; 6HR MAX TEMP: 101;                                

HERMISTON, OR  PTSUNNY  101  28   7 NE8       29.89F HX  94           
6HR MIN TEMP:  88; 6HR MAX TEMP: 102;                                

$$

WAZ036>038-160100-
NORTHEAST WASHINGTON
  
CITY           SKY/WX    TMP DP  RH WIND       PRES   REMARKS
SPOKANE GEIGER MOSUNNY   91  25   9 W7        30.02F                  
6HR MIN TEMP:  79; 6HR MAX TEMP:  92;                                

SPOKANE FELTS  SUNNY     94  25   8 VRB3      29.99F                  
6HR MIN TEMP:  80; 6HR MAX TEMP:  94;                                

FAIRCHILD AFB  SUNNY     89  31  13 W3        30.02F                  
6HR MIN TEMP:  79; 6HR MAX TEMP:  90;                                

COEURDALENE,ID SUNNY     90  31  12 VRB5      30.02F                  
6HR MIN TEMP:  79; 6HR MAX TEMP:  91;                                

DEER PARK      SUNNY     91  26   9 VRB3      30.01F                  
6HR MIN TEMP:  81; 6HR MAX TEMP:  91;                                

$$

WAZ029>033-160100-
SOUTHEAST WASHINGTON
  
CITY           SKY/WX    TMP DP  RH WIND       PRES   REMARKS
PULLMAN        PTSUNNY   87  34  15 VRB3      30.04F                  
6HR MIN TEMP:  82; 6HR MAX TEMP:  90;                                

LEWISTON, ID   CLOUDY    95  30  10 NE3       29.95F                  
6HR MIN TEMP:  83; 6HR MAX TEMP:  96;                                

WALLA WALLA    CLOUDY    96  39  13 S7        29.92F HX  91           
6HR MIN TEMP:  83; 6HR MAX TEMP:  98;                                

PENDLETON, OR  CLOUDY    95  28   9 VRB6      29.94F                  
6HR MIN TEMP:  89; 6HR MAX TEMP:  96;                                

$$